N499RK LFPB-LFMD

Flight info

Callsign N499RK
Flight time 1h 18m
Altitude 35000
Route LATRA DCT LAMUT DCT UTUVA DCT LERGA DCT LIQID DCT LATAM DCT MTL DCT XATEL
Aircraft PC24/M-SBDGIRWY/LB2

Departure

Time 2026-04-21 19:56
Airport Paris-Le Bourget International Airport (LFPB)

Arrival

Time 2026-04-21 21:14
Airport Cannes Mandelieu Airport (LFMD)
Time Latitude Longitude Altitude Speed Heading
2026-04-21 19:22 48.96227 2.44518 162 ft 0 kts 206°
2026-04-21 19:48 48.96224 2.44515 135 ft 1 kts 206°
2026-04-21 19:48 48.96207 2.44479 162 ft 7 kts 281°
2026-04-21 19:48 48.96215 2.44437 166 ft 3 kts 264°
2026-04-21 19:49 48.96156 2.44379 160 ft 18 kts 204°
2026-04-21 19:49 48.96024 2.44288 158 ft 23 kts 205°
2026-04-21 19:49 48.95857 2.44171 152 ft 29 kts 205°
2026-04-21 19:49 48.95738 2.44086 152 ft 12 kts 205°
2026-04-21 19:50 48.95696 2.44049 151 ft 12 kts 223°
2026-04-21 19:50 48.95699 2.43985 149 ft 8 kts 298°
2026-04-21 19:50 48.95727 2.43893 150 ft 11 kts 295°
2026-04-21 19:50 48.95764 2.43772 152 ft 14 kts 295°
2026-04-21 19:51 48.95808 2.43628 151 ft 13 kts 294°
2026-04-21 19:51 48.95841 2.43520 158 ft 11 kts 295°
2026-04-21 19:51 48.95877 2.43399 157 ft 15 kts 295°
2026-04-21 19:51 48.95918 2.43267 155 ft 15 kts 295°
2026-04-21 19:52 48.95975 2.43096 152 ft 21 kts 306°
2026-04-21 19:52 48.96061 2.42933 148 ft 15 kts 309°
2026-04-21 19:52 48.96119 2.42823 149 ft 10 kts 309°
2026-04-21 19:52 48.96167 2.42731 152 ft 12 kts 308°
2026-04-21 19:53 48.96218 2.42634 156 ft 12 kts 309°
2026-04-21 19:53 48.96264 2.42531 157 ft 10 kts 286°
2026-04-21 19:53 48.96269 2.42406 155 ft 11 kts 267°
2026-04-21 19:53 48.96264 2.42278 155 ft 10 kts 266°
2026-04-21 19:54 48.96262 2.42155 156 ft 11 kts 273°
2026-04-21 19:54 48.96322 2.42058 153 ft 17 kts 354°
2026-04-21 19:54 48.96376 2.42111 152 ft 1 kts 80°
2026-04-21 19:54 48.96376 2.42118 152 ft 0 kts 86°
2026-04-21 19:55 48.96376 2.42132 152 ft 13 kts 86°
2026-04-21 19:55 48.96404 2.42674 160 ft 89 kts 86°
2026-04-21 19:55 48.96474 2.43932 198 ft 146 kts 84°
2026-04-21 19:56 48.96501 2.45614 608 ft 167 kts 86°
2026-04-21 19:56 48.96502 2.47470 1260 ft 181 kts 86°
2026-04-21 19:56 48.96680 2.49250 1799 ft 159 kts 78°
2026-04-21 19:56 48.96796 2.50303 2167 ft 145 kts 82°
2026-04-21 19:57 48.96892 2.51724 2706 ft 129 kts 83°
2026-04-21 19:57 48.96879 2.53201 3322 ft 152 kts 96°
2026-04-21 19:57 48.96728 2.54875 3988 ft 167 kts 95°
2026-04-21 19:57 48.96598 2.56694 4630 ft 178 kts 95°
2026-04-21 19:58 48.96468 2.58604 5142 ft 183 kts 95°
2026-04-21 19:58 48.96337 2.60539 5634 ft 185 kts 94°
2026-04-21 19:58 48.96203 2.62505 6128 ft 188 kts 95°
2026-04-21 19:58 48.96067 2.64496 6628 ft 191 kts 95°
2026-04-21 19:59 48.95928 2.66527 7095 ft 195 kts 94°
2026-04-21 19:59 48.95786 2.68610 7569 ft 203 kts 94°
2026-04-21 19:59 48.95637 2.70776 8054 ft 208 kts 94°
2026-04-21 19:59 48.95459 2.73007 8543 ft 215 kts 101°
2026-04-21 20:00 48.94600 2.74959 9038 ft 240 kts 135°
2026-04-21 20:00 48.93027 2.76148 9571 ft 273 kts 168°
2026-04-21 20:00 48.91073 2.75872 10124 ft 292 kts 196°
2026-04-21 20:00 48.89140 2.74767 10621 ft 299 kts 203°
2026-04-21 20:01 48.87215 2.73503 11106 ft 305 kts 202°
2026-04-21 20:01 48.85230 2.72353 11587 ft 307 kts 200°
2026-04-21 20:01 48.83208 2.71268 12095 ft 309 kts 200°
2026-04-21 20:01 48.81179 2.70140 12593 ft 312 kts 201°
2026-04-21 20:02 48.79137 2.68977 13118 ft 315 kts 201°
2026-04-21 20:02 48.77076 2.67813 13650 ft 317 kts 201°
2026-04-21 20:02 48.74997 2.66648 14159 ft 320 kts 201°
2026-04-21 20:02 48.72906 2.65478 14642 ft 321 kts 202°
2026-04-21 20:03 48.70803 2.64298 15129 ft 323 kts 202°
2026-04-21 20:03 48.68688 2.63109 15633 ft 326 kts 203°
2026-04-21 20:03 48.66549 2.61924 16143 ft 329 kts 203°
2026-04-21 20:03 48.64333 2.61012 16648 ft 335 kts 191°
2026-04-21 20:04 48.61998 2.60676 17155 ft 341 kts 187°
2026-04-21 20:04 48.59607 2.60436 17686 ft 346 kts 189°
2026-04-21 20:04 48.57247 2.60035 18218 ft 346 kts 193°
2026-04-21 20:04 48.54851 2.59555 18685 ft 349 kts 193°
2026-04-21 20:05 48.52421 2.59127 19160 ft 355 kts 192°
2026-04-21 20:05 48.49949 2.58730 19641 ft 359 kts 192°
2026-04-21 20:05 48.47458 2.58311 20129 ft 362 kts 193°
2026-04-21 20:05 48.44946 2.57875 20619 ft 365 kts 193°
2026-04-21 20:06 48.42414 2.57437 21126 ft 367 kts 193°
2026-04-21 20:06 48.39870 2.57007 21615 ft 370 kts 193°
2026-04-21 20:06 48.37308 2.56571 22139 ft 372 kts 193°
2026-04-21 20:06 48.34711 2.56127 22665 ft 379 kts 193°
2026-04-21 20:07 48.32084 2.55683 23205 ft 380 kts 193°
2026-04-21 20:07 48.29417 2.55233 23752 ft 383 kts 193°
2026-04-21 20:07 48.26748 2.54773 24210 ft 388 kts 193°
2026-04-21 20:07 48.24062 2.54319 24678 ft 388 kts 193°
2026-04-21 20:08 48.21375 2.53870 25159 ft 390 kts 193°
2026-04-21 20:08 48.18663 2.53407 25499 ft 394 kts 193°
2026-04-21 20:08 48.15951 2.52950 25867 ft 392 kts 193°
2026-04-21 20:08 48.13228 2.52492 26242 ft 394 kts 194°
2026-04-21 20:09 48.10483 2.52103 26604 ft 400 kts 188°
2026-04-21 20:09 48.07673 2.52364 26982 ft 411 kts 178°
2026-04-21 20:09 48.04869 2.53365 27367 ft 419 kts 167°
2026-04-21 20:09 48.02133 2.54729 27758 ft 421 kts 166°
2026-04-21 20:10 47.99335 2.56110 28180 ft 425 kts 167°
2026-04-21 20:10 47.96522 2.57490 28573 ft 426 kts 167°
2026-04-21 20:10 47.93710 2.58876 28975 ft 425 kts 167°
2026-04-21 20:10 47.90908 2.60258 29387 ft 423 kts 167°
2026-04-21 20:11 47.88121 2.61626 29807 ft 421 kts 167°
2026-04-21 20:11 47.85334 2.62985 30216 ft 421 kts 167°
2026-04-21 20:11 47.82548 2.64350 30577 ft 421 kts 167°
2026-04-21 20:11 47.79767 2.65713 30948 ft 421 kts 167°
2026-04-21 20:12 47.77250 2.66944 31278 ft 420 kts 168°
2026-04-21 20:12 47.74482 2.68294 31630 ft 418 kts 168°
2026-04-21 20:12 47.71731 2.69636 32009 ft 414 kts 168°
2026-04-21 20:12 47.68982 2.70975 32393 ft 414 kts 168°
2026-04-21 20:13 47.66753 2.72057 32718 ft 414 kts 168°
2026-04-21 20:13 47.64020 2.73384 33106 ft 414 kts 168°
2026-04-21 20:13 47.61288 2.74712 33509 ft 413 kts 169°
2026-04-21 20:13 47.58559 2.76037 33909 ft 412 kts 169°
2026-04-21 20:14 47.55837 2.77355 34279 ft 411 kts 169°
2026-04-21 20:14 47.53129 2.78665 34635 ft 409 kts 168°
2026-04-21 20:14 47.50432 2.79969 34979 ft 407 kts 168°
2026-04-21 20:14 47.47725 2.81274 35082 ft 411 kts 168°
2026-04-21 20:15 47.45017 2.82581 35084 ft 407 kts 168°
2026-04-21 20:15 47.39666 2.85159 35078 ft 404 kts 168°
2026-04-21 20:16 47.34315 2.87727 35059 ft 405 kts 168°
2026-04-21 20:16 47.28972 2.90292 35095 ft 405 kts 169°
2026-04-21 20:17 47.23589 2.92864 35083 ft 409 kts 169°
2026-04-21 20:17 47.18171 2.95454 35080 ft 408 kts 169°
2026-04-21 20:18 47.13688 2.97589 35067 ft 407 kts 169°
2026-04-21 20:18 47.07360 3.00317 35056 ft 404 kts 171°
2026-04-21 20:19 47.01978 3.02535 35057 ft 404 kts 171°
2026-04-21 20:19 46.96423 3.04814 35075 ft 420 kts 171°
2026-04-21 20:20 46.90734 3.07152 35056 ft 435 kts 171°
2026-04-21 20:20 46.84831 3.09570 35067 ft 446 kts 171°
2026-04-21 20:21 46.78747 3.12054 35071 ft 455 kts 170°
2026-04-21 20:21 46.72664 3.14538 35062 ft 457 kts 170°
2026-04-21 20:22 46.66540 3.17026 35059 ft 456 kts 170°
2026-04-21 20:22 46.57376 3.20741 35056 ft 456 kts 171°
2026-04-21 20:23 46.51268 3.23209 35038 ft 456 kts 171°
2026-04-21 20:23 46.45139 3.25681 35041 ft 458 kts 171°
2026-04-21 20:24 46.38994 3.28153 35040 ft 459 kts 171°
2026-04-21 20:24 46.32840 3.30623 35038 ft 459 kts 171°
2026-04-21 20:25 46.26714 3.33078 35032 ft 455 kts 170°
2026-04-21 20:25 46.20621 3.35509 35032 ft 454 kts 171°
2026-04-21 20:26 46.14526 3.37940 35030 ft 455 kts 171°
2026-04-21 20:26 46.08434 3.40364 35028 ft 452 kts 170°
2026-04-21 20:27 46.02378 3.42765 35026 ft 452 kts 170°
2026-04-21 20:27 45.96307 3.45174 35026 ft 453 kts 170°
2026-04-21 20:28 45.90220 3.47569 35026 ft 453 kts 170°
2026-04-21 20:28 45.84183 3.50036 35026 ft 451 kts 168°
2026-04-21 20:29 45.78145 3.52632 35031 ft 455 kts 168°
2026-04-21 20:29 45.72090 3.55252 35034 ft 453 kts 168°
2026-04-21 20:30 45.66079 3.57828 35025 ft 450 kts 168°
2026-04-21 20:30 45.60079 3.60401 35027 ft 450 kts 168°
2026-04-21 20:31 45.54072 3.62971 35035 ft 451 kts 168°
2026-04-21 20:31 45.48055 3.65537 35023 ft 452 kts 168°
2026-04-21 20:32 45.42036 3.68102 35018 ft 451 kts 169°
2026-04-21 20:32 45.36023 3.70681 35011 ft 452 kts 165°
2026-04-21 20:33 45.33270 3.72910 35011 ft 464 kts 143°
2026-04-21 20:33 45.31131 3.76369 35030 ft 465 kts 126°
2026-04-21 20:33 45.27100 3.83497 35036 ft 465 kts 134°
2026-04-21 20:34 45.22839 3.90430 35029 ft 468 kts 129°
2026-04-21 20:34 45.18804 3.97655 35033 ft 466 kts 132°
2026-04-21 20:35 45.14633 4.04624 35033 ft 467 kts 131°
2026-04-21 20:35 45.10519 4.11785 35022 ft 462 kts 131°
2026-04-21 20:36 45.06431 4.18700 35022 ft 463 kts 131°
2026-04-21 20:36 45.02070 4.25441 35021 ft 461 kts 144°
2026-04-21 20:37 44.97090 4.31073 35026 ft 462 kts 144°
2026-04-21 20:37 44.92109 4.36765 35018 ft 460 kts 144°
2026-04-21 20:38 44.87133 4.42384 34992 ft 457 kts 144°
2026-04-21 20:38 44.82164 4.48024 34992 ft 458 kts 144°
2026-04-21 20:39 44.77204 4.53618 34989 ft 456 kts 144°
2026-04-21 20:39 44.72245 4.59206 34986 ft 458 kts 144°
2026-04-21 20:40 44.67250 4.64821 34979 ft 460 kts 144°
2026-04-21 20:40 44.63090 4.69488 34976 ft 460 kts 144°
2026-04-21 20:41 44.58077 4.75099 34969 ft 461 kts 144°
2026-04-21 20:41 44.53297 4.81084 34962 ft 462 kts 136°
2026-04-21 20:42 44.48766 4.87470 34950 ft 462 kts 137°
2026-04-21 20:42 44.44227 4.93832 34949 ft 462 kts 137°
2026-04-21 20:43 44.39663 5.00231 34683 ft 467 kts 137°
2026-04-21 20:43 44.37356 5.03458 34166 ft 471 kts 137°
2026-04-21 20:43 44.35050 5.06682 33518 ft 468 kts 137°
2026-04-21 20:44 44.32757 5.09885 32891 ft 465 kts 137°
2026-04-21 20:44 44.30465 5.13078 32262 ft 466 kts 136°
2026-04-21 20:44 44.28168 5.16263 31658 ft 466 kts 137°
2026-04-21 20:44 44.25599 5.18967 31033 ft 462 kts 153°
2026-04-21 20:45 44.22786 5.21140 30445 ft 463 kts 154°
2026-04-21 20:45 44.19959 5.23271 30147 ft 463 kts 155°
2026-04-21 20:45 44.17130 5.25418 29810 ft 459 kts 154°
2026-04-21 20:45 44.14374 5.27542 29450 ft 448 kts 154°
2026-04-21 20:46 44.11653 5.29625 29108 ft 445 kts 154°
2026-04-21 20:46 44.08939 5.31678 28754 ft 444 kts 154°
2026-04-21 20:46 44.06232 5.33733 28419 ft 444 kts 154°
2026-04-21 20:46 44.03496 5.35815 28037 ft 450 kts 154°
2026-04-21 20:47 44.00746 5.37906 27640 ft 452 kts 154°
2026-04-21 20:47 43.97975 5.40007 27251 ft 455 kts 154°
2026-04-21 20:47 43.95187 5.42117 26872 ft 456 kts 154°
2026-04-21 20:47 43.92396 5.44224 26414 ft 456 kts 154°
2026-04-21 20:48 43.89657 5.46290 25874 ft 451 kts 154°
2026-04-21 20:48 43.86923 5.48353 25358 ft 444 kts 154°
2026-04-21 20:48 43.84223 5.50387 24849 ft 440 kts 154°
2026-04-21 20:48 43.81505 5.52428 24340 ft 437 kts 154°
2026-04-21 20:49 43.78878 5.54401 23836 ft 435 kts 154°
2026-04-21 20:49 43.76250 5.56457 23222 ft 434 kts 148°
2026-04-21 20:49 43.74082 5.59330 22583 ft 430 kts 130°
2026-04-21 20:49 43.72240 5.62554 22011 ft 425 kts 128°
2026-04-21 20:50 43.70454 5.65798 21382 ft 423 kts 127°
2026-04-21 20:50 43.68686 5.68977 20695 ft 410 kts 128°
2026-04-21 20:50 43.66946 5.72035 20027 ft 403 kts 129°
2026-04-21 20:50 43.65230 5.75037 19374 ft 390 kts 129°
2026-04-21 20:51 43.63587 5.77920 18734 ft 374 kts 129°
2026-04-21 20:51 43.62014 5.80700 18119 ft 362 kts 129°
2026-04-21 20:51 43.60481 5.83383 17411 ft 351 kts 129°
2026-04-21 20:51 43.58987 5.85987 16731 ft 341 kts 129°
2026-04-21 20:52 43.57563 5.88484 16022 ft 322 kts 129°
2026-04-21 20:52 43.56212 5.90866 15332 ft 309 kts 129°
2026-04-21 20:52 43.54910 5.93152 14673 ft 298 kts 130°
2026-04-21 20:52 43.53645 5.95370 14022 ft 291 kts 130°
2026-04-21 20:53 43.52411 5.97532 13350 ft 284 kts 129°
2026-04-21 20:53 43.51199 5.99653 12680 ft 279 kts 130°
2026-04-21 20:53 43.50009 6.01734 12030 ft 274 kts 129°
2026-04-21 20:53 43.48839 6.03779 11402 ft 270 kts 129°
2026-04-21 20:54 43.47688 6.05791 10796 ft 266 kts 130°
2026-04-21 20:54 43.46570 6.07743 10470 ft 253 kts 129°
2026-04-21 20:54 43.45475 6.09654 10239 ft 258 kts 129°
2026-04-21 20:54 43.44361 6.11629 10052 ft 262 kts 126°
2026-04-21 20:55 43.43444 6.13761 10044 ft 257 kts 120°
2026-04-21 20:55 43.42519 6.15885 10039 ft 260 kts 122°
2026-04-21 20:55 43.41580 6.18015 10020 ft 261 kts 121°
2026-04-21 20:55 43.40637 6.20175 9893 ft 264 kts 121°
2026-04-21 20:56 43.39696 6.22339 9746 ft 263 kts 121°
2026-04-21 20:56 43.38763 6.24482 9581 ft 260 kts 121°
2026-04-21 20:56 43.37812 6.26583 9424 ft 257 kts 124°
2026-04-21 20:56 43.36840 6.28631 9265 ft 255 kts 123°
2026-04-21 20:57 43.35885 6.30676 9111 ft 254 kts 123°
2026-04-21 20:57 43.34927 6.32725 8957 ft 255 kts 123°
2026-04-21 20:57 43.33966 6.34775 8752 ft 255 kts 123°
2026-04-21 20:57 43.33019 6.36772 8504 ft 245 kts 124°
2026-04-21 20:58 43.31800 6.38218 8179 ft 223 kts 165°
2026-04-21 20:58 43.30397 6.38185 7908 ft 191 kts 212°
2026-04-21 20:58 43.29606 6.36904 7712 ft 174 kts 261°
2026-04-21 20:58 43.29863 6.35394 7521 ft 166 kts 310°
2026-04-21 20:59 43.30786 6.34452 7322 ft 164 kts 323°
2026-04-21 20:59 43.31642 6.33431 7112 ft 164 kts 309°
2026-04-21 20:59 43.32307 6.32204 7041 ft 155 kts 304°
2026-04-21 20:59 43.32895 6.31013 7027 ft 148 kts 304°
2026-04-21 21:00 43.33580 6.29950 6925 ft 155 kts 332°
2026-04-21 21:00 43.34640 6.29953 6942 ft 162 kts 18°
2026-04-21 21:00 43.35366 6.31144 6947 ft 179 kts 73°
2026-04-21 21:00 43.35363 6.32860 6969 ft 184 kts 92°
2026-04-21 21:01 43.35255 6.34675 6867 ft 200 kts 92°
2026-04-21 21:01 43.35131 6.36659 6705 ft 214 kts 92°
2026-04-21 21:01 43.34999 6.38716 6508 ft 216 kts 93°
2026-04-21 21:01 43.34869 6.40759 6326 ft 212 kts 93°
2026-04-21 21:02 43.34740 6.42758 6192 ft 210 kts 93°
2026-04-21 21:02 43.34613 6.44759 6064 ft 210 kts 93°
2026-04-21 21:02 43.34485 6.46757 6005 ft 208 kts 93°
2026-04-21 21:02 43.34360 6.48743 6003 ft 210 kts 92°
2026-04-21 21:03 43.34235 6.50753 6011 ft 212 kts 93°
2026-04-21 21:03 43.34106 6.52769 5997 ft 211 kts 92°
2026-04-21 21:03 43.33984 6.54787 5899 ft 213 kts 93°
2026-04-21 21:03 43.33857 6.56816 5784 ft 213 kts 93°
2026-04-21 21:04 43.33732 6.58845 5658 ft 212 kts 93°
2026-04-21 21:04 43.33610 6.60854 5531 ft 210 kts 93°
2026-04-21 21:04 43.33488 6.62852 5405 ft 210 kts 93°
2026-04-21 21:04 43.33367 6.64850 5275 ft 210 kts 92°
2026-04-21 21:05 43.33241 6.66835 5150 ft 208 kts 93°
2026-04-21 21:05 43.33117 6.68819 5028 ft 209 kts 93°
2026-04-21 21:05 43.32997 6.70796 5006 ft 207 kts 93°
2026-04-21 21:05 43.32878 6.72766 5006 ft 208 kts 93°
2026-04-21 21:06 43.32757 6.74754 5009 ft 209 kts 93°
2026-04-21 21:06 43.32637 6.76751 5012 ft 210 kts 93°
2026-04-21 21:06 43.32517 6.78758 5011 ft 211 kts 93°
2026-04-21 21:06 43.32398 6.80760 5011 ft 210 kts 93°
2026-04-21 21:07 43.32278 6.82770 4899 ft 214 kts 93°
2026-04-21 21:07 43.32305 6.84782 4675 ft 208 kts 78°
2026-04-21 21:07 43.32604 6.86712 4448 ft 205 kts 73°
2026-04-21 21:07 43.32952 6.88590 4228 ft 201 kts 73°
2026-04-21 21:08 43.33301 6.90404 4006 ft 192 kts 73°
2026-04-21 21:08 43.33650 6.92177 3786 ft 192 kts 72°
2026-04-21 21:08 43.34121 6.93884 3566 ft 191 kts 65°
2026-04-21 21:08 43.34643 6.95555 3347 ft 190 kts 65°
2026-04-21 21:09 43.35173 6.97207 3127 ft 188 kts 64°
2026-04-21 21:09 43.35898 6.98660 2894 ft 185 kts 38°
2026-04-21 21:09 43.37092 6.99181 2584 ft 183 kts 356°
2026-04-21 21:09 43.38321 6.98720 2261 ft 182 kts 340°
2026-04-21 21:10 43.39486 6.98115 2030 ft 176 kts 340°
2026-04-21 21:10 43.40621 6.97574 1846 ft 169 kts 345°
2026-04-21 21:10 43.41739 6.97264 1679 ft 159 kts 353°
2026-04-21 21:10 43.42830 6.97127 1433 ft 157 kts 359°
2026-04-21 21:11 43.43917 6.96983 1182 ft 155 kts 353°
2026-04-21 21:11 43.44993 6.96752 975 ft 158 kts 353°
2026-04-21 21:11 43.46166 6.96516 968 ft 170 kts 354°
2026-04-21 21:11 43.47203 6.96367 918 ft 137 kts 356°
2026-04-21 21:12 43.48102 6.96258 719 ft 125 kts 355°
2026-04-21 21:12 43.48952 6.96129 487 ft 129 kts 353°
2026-04-21 21:12 43.49929 6.95949 602 ft 140 kts 353°
2026-04-21 21:12 43.50825 6.95762 541 ft 127 kts 352°
2026-04-21 21:13 43.51687 6.95613 478 ft 124 kts 356°
2026-04-21 21:13 43.52544 6.95483 392 ft 124 kts 353°
2026-04-21 21:13 43.53407 6.95326 272 ft 125 kts 352°
2026-04-21 21:13 43.54231 6.95181 53 ft 114 kts 353°
2026-04-21 21:14 43.54923 6.95062 11 ft 76 kts 353°
2026-04-21 21:14 43.55212 6.95010 11 ft 26 kts 352°
2026-04-21 21:14 43.55304 6.94993 13 ft 11 kts 354°
2026-04-21 21:14 43.55372 6.94997 13 ft 9 kts 34°
2026-04-21 21:15 43.55392 6.95074 13 ft 9 kts 85°
2026-04-21 21:15 43.55378 6.95147 13 ft 8 kts 140°
2026-04-21 21:15 43.55326 6.95161 13 ft 8 kts 172°
2026-04-21 21:15 43.55260 6.95173 13 ft 11 kts 172°
2026-04-21 21:16 43.55180 6.95187 13 ft 13 kts 173°
2026-04-21 21:16 43.55087 6.95204 13 ft 14 kts 173°
2026-04-21 21:16 43.54983 6.95222 13 ft 16 kts 173°
2026-04-21 21:16 43.54874 6.95242 13 ft 15 kts 172°
2026-04-21 21:17 43.54778 6.95259 13 ft 3 kts 173°
2026-04-21 21:17 43.54756 6.95264 13 ft 3 kts 158°
2026-04-21 21:17 43.54748 6.95292 13 ft 4 kts 78°
2026-04-21 21:17 43.54754 6.95328 13 ft 4 kts 80°
2026-04-21 21:18 43.54748 6.95350 13 ft 1 kts 149°
2026-04-21 21:18 43.54744 6.95351 13 ft 2 kts 169°
2026-04-21 21:18 43.54726 6.95354 13 ft 3 kts 173°
2026-04-21 21:18 43.54719 6.95355 13 ft 0 kts 173°